Погода в Тургае

Казахстан     49˚37′56″N   63˚29′30″E
темп.,
°C
ветер,
м/с
пор.,
м/с
влажн.,
%
обл.,
%
осадки,
мм/ч
давл.,
гПа
погр.,
м
17 января, вс
вс1700:00−9˚зюз449512 0.0 101940
03:00−9˚з45900 0.0 102052
06:00−11˚з33850 0.0 102121
09:00−12˚юз34840 0.0 102124
12:00−10˚ююз48897 0.0 1021154
15:00−7˚ююз59900 0.0 1019266
18:00−8˚юз479116 0.0 1019123
21:00−10˚зюз338965 0.0 101926
18 января, пн
пн1800:00−11˚зюз228666 0.0 101821
03:00−12˚з118410 0.0 101821
06:00−11˚св228652 0.0 101721
09:00−11˚всв348795 0.0 101742
12:00−10˚всв469195 0.0 1017150
15:00−8˚всв4691100 0.0 1016190
18:00−10˚всв579296 0.0 1015105
21:00−11˚св458953 0.0 101563
19 января, вт
вт1900:00−11˚св558765 0.0 101474
03:00−12˚всв458688 0.0 101357
06:00−11˚всв348290 0.0 101225
09:00−12˚св338483 0.0 101123
12:00−10˚в338691 0.0 101168
15:00−7˚юв2389100 0.0 1010130
18:00−10˚ю119395 0.0 100921
21:00−8˚зюз3494100 0.0 1010105
20 января, ср
ср2000:00−8˚з4794100 0.4 1011254
03:00−12˚з5109355 0.0 1014152
06:00−15˚зсз459228 0.0 101757
09:00−14˚сз3491100 0.0 102092
12:00−13˚сз2286100 0.0 1021177
15:00−12˚с2386100 0.0 1021214
18:00−13˚с3490100 0.0 102194
21:00−14˚ссв3491100 0.0 1021102
21 января, чт
чт2100:00−15˚св3490100 0.0 102075
03:00−16˚ссв4691100 0.0 1019104
06:00−16˚ссв4692100 0.0 1018149
09:00−16˚с4691100 0.0 1017135
12:00−15˚ссз4689100 0.0 1017199
15:00−14˚сз4689100 0.0 1017288
18:00−14˚сз4695100 0.4 1018251
21:00−19˚сз459683 0.0 102079